sat.trackr.live / text

‹ back to catalog

STARLINK-3736

NORAD 52113 · 2022-029AB

PAYLOAD ACTIVE UNKNOWN

§ Identity

Operator
Country
US
Launch date
2022-03-19
Launch site
AFETR
Launch vehicle
Mass (kg)
RCS (m²)

Purposes: comms

External: N2YO · Heavens-Above · Gunter

§ Orbital elements

Epoch: 2026-05-25T02:45:57.104928Z

Period
95.44 min
Inclination
53.2145°
Eccentricity
0.0001132
Mean motion
15.08848539 rev/d
Perigee alt
538.9 km
Apogee alt
540.5 km
Semi-major
6,917.9 km
B*
1.1045e-5
RAAN
96.0324°
Arg perigee
81.9060°
Mean anomaly
278.2061°
Rev number
23,232

§ Raw data

STARLINK-37361 52113U 22029AB  26145.11524427 -.00000112  00000+0  11045-4 0  99902 52113  53.2145  96.0324 0001132  81.9060 278.2061 15.08848539232328

JSON: /api/v1/satellites/52113 · /tle

For live sub-satellite position, see the globe view (requires WebGL).

§ Visibility from observer

Set your observer location to see the next 7 days of passes ≥ 10°. The values pass through the URL so the page stays shareable.

No JS? Fill the form by hand. The geolocation button needs JavaScript.